sat.trackr.live / text

‹ back to catalog

STARLINK-30401

NORAD 57818 · 2023-138L

PAYLOAD ACTIVE UNKNOWN

§ Identity

Operator
Country
US
Launch date
2023-09-09
Launch site
AFETR
Launch vehicle
Mass (kg)
RCS (m²)

Purposes: comms

External: N2YO · Heavens-Above · Gunter

§ Orbital elements

Epoch: 2026-05-25T01:20:05.109216Z

Period
94.27 min
Inclination
43.0010°
Eccentricity
0.0001344
Mean motion
15.27579467 rev/d
Perigee alt
482.1 km
Apogee alt
484.0 km
Semi-major
6,861.2 km
B*
4.1946e-5
RAAN
163.2284°
Arg perigee
267.5141°
Mean anomaly
92.5557°
Rev number
15,031

§ Raw data

STARLINK-304011 57818U 23138L   26145.05561469  .00000892  00000+0  41946-4 0  99962 57818  43.0010 163.2284 0001344 267.5141  92.5557 15.27579467150319

JSON: /api/v1/satellites/57818 · /tle

For live sub-satellite position, see the globe view (requires WebGL).

§ Visibility from observer

Set your observer location to see the next 7 days of passes ≥ 10°. The values pass through the URL so the page stays shareable.

No JS? Fill the form by hand. The geolocation button needs JavaScript.